Wind_Speed
25 24 25 25 25 24 22 19 16 17 17 16 14 13 14 12 12 6 8 10 12 13 12 10 10 11 7 4 6 4 1 2 4 4 3 1 8 1 7 18 5 3 11 28 34
26 26 27 26 25 25 23 19 17 19 17 16 15 13 12 10 10 12 16 13 15 13 11 9 6 8 3 5 4 5 4 4 2 7 4 2 1 9 3 16 8 9 19 30 33
24 25 27 27 27 25 24 21 18 21 18 15 13 9 5 6 3 7 4 17 15 13 13 11 9 5 4 3 7 6 7 7 6 6 10 3 5 10 5 11 14 23 23 23 27
26 26 25 26 27 26 25 22 18 20 17 13 8 5 3 2 2 3 5 18 17 13 13 5 3 4 5 7 9 6 15 16 11 7 8 8 11 7 8 7 8 26 28 23 20
26 27 27 28 27 26 26 23 18 19 13 9 7 3 2 1 8 6 7 16 18 17 14 6 5 4 4 6 13 11 16 13 12 10 13 13 11 15 11 8 10 16 21 21 17
28 28 29 28 28 27 26 24 18 16 11 11 6 1 2 2 4 11 12 17 17 18 13 10 7 9 5 9 8 6 9 11 9 16 12 14 10 9 7 4 17 16 16 16 15
28 29 29 31 29 28 28 24 17 13 9 8 2 4 2 10 4 14 13 13 20 22 7 22 12 3 5 8 11 10 6 9 13 15 7 20 9 2 1 7 17 16 13 11 10
30 30 30 31 30 29 28 22 16 13 7 3 2 2 6 7 7 14 15 12 16 17 21 13 14 6 5 7 7 5 3 4 6 13 12 3 4 10 9 12 11 13 15 12 8
29 30 31 31 31 30 27 20 17 10 4 1 2 3 8 8 5 14 18 11 19 15 17 5 4 5 3 3 5 7 2 6 9 17 11 3 7 13 13 20 17 18 17 14 10
29 30 31 31 30 29 24 20 7 3 4 1 5 3 7 4 7 8 11 10 6 6 1 2 2 1 4 4 3 2 3 5 5 6 9 8 7 18 15 19 20 21 18 17 14
29 30 30 31 27 22 23 4 4 3 3 7 5 4 7 2 5 3 6 2 5 6 4 4 4 4 8 6 6 4 3 9 17 13 4 16 17 22 17 11 13 13 13 18 15
30 31 31 30 22 14 9 2 4 3 6 10 13 10 21 13 2 5 9 3 5 4 3 4 5 9 6 6 7 7 7 11 12 4 5 6 9 13 15 14 18 21 18 17 13
32 34 32 26 14 5 9 10 12 15 1 8 6 5 6 4 2 5 8 5 3 5 7 6 9 9 8 7 6 6 6 10 11 2 7 12 5 5 4 6 7 15 23 18 20
32 35 30 24 4 15 8 22 16 3 4 6 4 2 3 5 2 8 6 3 1 9 6 5 14 9 8 10 5 6 7 11 8 3 3 4 4 7 10 6 13 16 14 15 16
33 32 22 12 10 6 16 24 21 4 3 4 1 2 1 6 4 4 3 4 1 2 4 7 5 7 8 11 8 12 12 8 2 3 3 3 4 4 13 11 18 18 23 15 16
33 24 17 5 10 10 21 24 6 5 3 4 3 3 4 1 1 4 2 3 1 1 2 6 4 4 7 6 6 12 6 7 5 3 2 5 5 3 7 25 18 20 18 21 20
26 13 8 6 4 12 20 5 4 3 7 3 4 4 4 5 3 5 3 1 2 3 2 5 4 3 3 3 6 3 7 3 4 3 5 5 4 7 13 11 20 27 24 20 16
17 8 6 11 8 14 12 5 8 9 5 5 5 3 5 4 2 3 3 4 5 2 4 4 4 8 8 1 4 3 8 5 6 3 3 7 3 5 9 17 17 21 22 20 17
16 4 7 5 8 6 5 6 2 4 5 9 8 7 10 7 5 4 8 7 5 7 6 3 3 5 4 6 5 4 2 6 5 1 4 3 8 9 3 8 10 13 15 19 15
11 7 6 5 2 3 5 6 4 5 7 6 7 7 8 9 7 6 6 9 4 8 3 3 3 3 7 7 11 8 5 4 3 2 3 5 4 5 12 14 6 7 13 12 13
5 4 12 1 3 5 3 3 6 11 13 7 6 6 5 5 6 7 6 9 8 6 11 5 4 7 4 6 3 7 8 6 1 4 4 2 5 4 7 5 10 9 17 17 16
5 4 28 9 5 1 3 3 6 9 11 7 7 7 5 6 7 5 6 4 4 3 4 5 3 4 3 6 3 4 6 5 4 7 1 4 4 5 7 8 12 18 8 7 13
2 3 22 12 4 5 5 12 10 8 9 6 10 8 7 7 5 5 6 9 6 5 3 4 4 4 11 7 8 7 10 5 3 3 2 3 5 13 15 14 12 16 11 6 6
2 4 5 5 1 5 4 9 5 11 11 7 7 8 8 9 8 6 8 12 13 8 12 7 4 5 4 4 4 7 12 8 5 2 5 3 14 13 15 13 13 14 20 3 14
3 1 3 3 5 8 8 4 8 6 7 11 7 10 5 7 6 6 8 7 6 13 6 5 2 4 3 6 8 10 13 12 6 4 2 7 7 10 10 8 7 8 19 22 15
3 3 5 2 4 10 7 5 6 4 4 4 5 6 10 5 2 3 5 5 2 7 7 5 1 4 5 7 8 9 11 12 11 6 5 6 5 11 8 11 12 11 12 14 11
8 6 4 6 3 5 3 4 4 2 7 5 6 4 6 3 3 5 4 4 6 0 3 1 3 2 2 4 5 7 5 4 11 6 3 3 3 11 11 13 14 15 11 9 7
Wind_Direction
354 354 353 353 352 352 350 343 342 338 329 321 316 313 317 316 314 280 235 217 198 157 161 173 193 198 210 236 218 231 319 348 186 150 319 221 354 265 59 141 157 188 149 156 157
352 351 350 350 350 349 347 342 339 337 331 322 313 306 314 321 307 243 250 198 179 172 180 173 187 181 197 213 218 202 183 218 258 133 88 21 203 328 61 164 132 112 141 154 151
350 349 348 346 346 345 344 341 337 338 332 324 322 310 322 329 301 252 304 188 184 200 195 191 201 178 204 225 212 204 236 206 191 148 137 262 71 354 338 206 160 152 160 160 158
347 346 345 344 343 341 340 339 335 337 332 335 329 326 353 356 262 284 139 175 180 186 187 181 183 182 205 218 226 275 248 244 240 187 128 120 100 1 290 313 181 162 163 161 163
346 343 341 342 340 338 336 335 333 336 330 347 341 334 75 66 251 202 158 184 184 186 190 169 171 168 225 215 247 246 264 268 259 150 121 135 137 171 227 257 166 180 166 164 164
345 342 338 336 338 335 332 330 329 334 321 324 317 291 156 262 237 179 164 177 189 187 191 177 201 207 256 240 239 276 288 284 276 142 148 125 128 162 206 195 152 179 171 170 171
342 340 336 335 335 331 328 326 323 324 317 335 5 131 268 239 200 184 171 186 187 193 165 206 221 287 354 323 245 256 281 306 130 145 137 120 131 136 131 187 157 175 172 177 184
340 336 333 333 332 328 324 324 317 310 293 320 106 151 249 262 249 226 207 197 196 200 206 207 219 273 202 263 325 353 35 340 149 168 160 172 151 136 126 131 153 177 180 184 205
337 334 332 333 330 327 322 323 311 300 241 226 173 185 268 326 230 219 203 215 192 204 214 217 210 219 305 265 7 15 283 303 316 179 153 167 133 174 177 158 172 178 193 186 202
336 334 332 332 329 328 321 326 313 114 134 216 266 307 272 218 194 190 212 165 161 175 163 164 136 264 349 82 211 266 305 324 257 309 134 164 171 171 182 190 180 171 188 195 203
338 337 334 329 329 331 329 350 27 47 198 197 193 254 287 166 157 206 211 115 151 99 168 194 105 210 254 189 189 246 279 280 285 287 248 199 164 181 177 190 185 180 188 202 201
342 340 335 330 331 329 323 329 221 239 305 238 245 244 261 269 335 242 219 115 126 169 187 354 219 229 236 216 239 261 256 276 287 299 103 128 171 176 181 192 182 174 176 202 203
343 343 338 334 341 36 314 276 314 315 40 291 212 207 234 152 209 226 135 171 181 166 181 179 238 230 237 250 236 253 221 257 253 70 43 106 82 129 182 186 184 189 189 192 204
342 343 341 341 34 337 303 346 342 17 53 282 191 220 164 141 330 164 155 137 150 198 213 203 245 224 230 248 196 266 226 252 275 80 270 180 156 178 171 172 193 209 202 199 218
340 342 339 341 317 313 335 343 337 56 92 206 108 167 156 125 161 355 55 54 224 284 83 257 241 217 221 231 203 240 253 233 277 83 101 341 89 284 144 201 207 203 215 205 204
334 341 335 321 316 335 337 332 332 51 116 169 134 164 91 66 25 196 84 73 176 263 239 232 239 192 213 242 227 234 247 25 48 81 57 207 139 234 187 218 199 204 211 201 205
336 335 308 281 259 325 336 9 49 61 318 4 166 145 147 206 177 173 151 192 121 78 348 334 309 273 343 356 345 108 64 1 349 356 222 176 72 235 225 227 185 194 203 204 212
347 336 302 263 285 303 340 54 51 351 348 321 5 135 173 164 176 125 86 29 20 117 68 75 349 10 0 138 249 118 149 156 192 209 264 355 218 244 221 228 206 196 188 193 198
352 324 295 317 297 306 57 50 46 343 322 337 345 42 10 347 115 103 85 29 37 11 108 65 273 322 23 347 356 292 86 185 118 75 81 262 311 315 68 279 247 180 172 183 177
341 328 278 22 109 98 59 60 78 9 356 29 45 8 43 357 39 24 54 352 42 18 87 357 356 6 317 32 23 87 293 5 18 112 172 296 323 246 3 349 307 184 213 182 172
3 11 352 169 146 54 107 77 67 25 34 36 355 38 53 42 28 20 25 29 21 356 59 30 74 295 33 56 355 356 15 359 95 128 145 153 264 78 87 28 1 274 216 187 196
4 42 356 134 52 52 67 23 69 10 19 17 46 52 54 25 32 73 58 77 27 8 50 330 114 334 245 268 250 127 78 48 49 316 326 132 278 10 29 2 14 21 256 193 189
48 286 19 54 63 10 7 77 68 32 14 11 13 22 24 31 62 66 45 17 47 61 79 334 14 10 341 12 21 37 6 28 260 348 325 120 266 9 26 28 26 11 348 215 159
73 24 335 33 62 109 98 50 51 32 46 48 43 37 30 27 13 43 31 9 24 49 49 65 71 131 183 233 269 322 335 347 109 10 327 271 330 351 15 9 2 16 16 316 194
43 305 191 347 3 58 61 69 49 19 13 24 38 28 14 26 23 27 5 0 9 21 24 86 90 25 353 11 352 340 342 335 326 239 184 294 318 325 354 346 355 24 49 43 48
71 51 11 26 39 56 34 15 64 353 52 18 70 12 55 81 76 316 32 27 296 350 16 6 345 44 360 35 10 323 309 308 304 348 310 334 336 356 353 22 16 21 48 84 60
4 350 98 313 46 74 23 53 79 68 7 99 89 43 36 353 280 236 221 195 241 95 339 92 110 70 267 65 7 307 270 294 294 338 88 89 295 358 5 19 27 12 17 14 49
Height
813 809 805 802 798 794 791 788 786 783 780 778 776 775 774 772 771 770 769 761 763 765 769 773 776 777 781 781 779 777 801 804 793 797 787 779 787 775 767 774 775 776 778 784 795
812 808 804 800 796 793 790 786 784 781 778 776 774 773 772 770 769 765 753 756 761 765 768 770 773 776 783 779 778 786 804 790 770 774 788 781 785 783 781 779 779 784 787 791 796
810 806 803 799 795 791 788 785 782 779 776 774 771 770 770 769 769 751 746 753 758 763 766 769 772 774 782 777 776 775 788 772 770 769 768 780 784 785 788 788 777 786 787 792 798
808 804 800 797 793 790 786 783 780 777 773 771 770 769 769 770 768 748 747 751 756 761 765 767 771 778 782 783 766 783 761 761 762 765 770 780 786 787 795 788 780 776 778 788 797
807 802 798 794 791 787 783 780 778 775 772 771 769 769 769 770 760 747 748 751 756 760 762 766 772 775 782 771 767 771 758 755 751 758 765 774 788 788 792 786 785 788 785 789 795
804 801 796 792 788 784 780 778 775 773 771 770 769 768 769 770 744 745 746 750 753 757 760 763 764 764 769 767 770 755 754 752 744 758 762 773 789 790 791 783 786 789 791 792 796
802 798 793 788 784 781 777 774 772 771 770 769 767 768 770 756 743 744 745 747 750 753 757 757 761 767 765 768 752 754 765 756 752 757 767 769 795 794 790 781 788 791 793 794 797
799 795 790 785 780 776 772 770 768 768 768 768 767 768 764 742 743 744 745 747 750 752 753 755 762 764 767 757 757 765 767 783 757 757 765 764 802 796 787 787 794 794 793 795 799
795 791 786 781 777 771 767 765 763 763 765 767 768 768 759 741 740 739 742 744 747 751 753 756 760 765 763 773 787 785 796 784 769 749 765 776 799 791 782 778 785 789 791 792 797
792 787 782 778 773 767 762 760 758 761 764 767 767 771 747 741 736 737 738 741 746 749 755 758 766 775 779 790 815 796 793 786 784 755 761 780 785 782 782 779 775 778 787 790 793
789 784 778 774 770 765 759 759 761 765 762 759 756 753 740 735 735 736 736 738 743 751 770 761 781 791 782 777 776 779 785 788 767 754 761 764 780 777 784 784 786 786 791 789 789
787 781 775 769 765 764 762 762 756 758 763 747 745 747 740 738 740 736 736 745 751 767 762 773 787 771 764 764 771 777 787 788 766 754 762 777 784 788 785 783 780 775 780 783 788
785 779 771 764 761 762 762 758 755 754 765 748 738 739 737 734 741 741 736 742 751 764 767 781 769 758 764 768 775 778 787 781 780 766 766 776 797 796 791 785 785 777 771 770 776
782 776 769 761 763 762 759 756 754 752 784 760 742 735 733 734 744 731 734 741 749 763 762 771 753 759 765 770 769 792 764 763 765 778 798 764 810 797 792 793 788 780 777 775 775
779 774 768 766 765 763 760 754 752 753 790 745 742 729 731 744 742 741 733 738 755 758 760 771 758 762 767 763 759 771 751 760 758 777 783 778 802 793 786 796 783 779 772 770 769
775 771 767 767 765 760 757 753 753 785 779 751 739 743 745 742 743 739 741 739 742 754 754 757 741 747 753 745 747 741 755 767 775 786 815 794 793 803 796 769 776 774 769 766 766
771 768 765 765 762 759 756 755 786 793 751 755 752 747 751 754 751 749 753 759 772 778 777 763 755 743 740 751 746 747 782 818 814 817 822 789 797 785 759 749 752 758 762 763 763
769 766 764 761 759 759 758 771 796 772 773 754 751 747 762 751 753 750 759 776 763 769 792 793 789 767 757 764 763 758 778 812 823 825 816 783 796 773 741 728 728 733 744 751 757
768 766 763 758 758 760 767 791 795 783 772 770 759 765 775 759 755 757 772 782 774 774 792 798 785 763 755 759 759 759 779 770 796 801 814 801 778 749 737 738 734 739 743 745 748
769 767 762 758 758 761 780 790 783 771 768 771 789 779 790 782 778 775 778 781 778 774 772 784 799 780 763 759 765 781 773 788 806 817 820 810 795 790 765 755 739 743 743 745 744
772 774 761 759 759 772 796 786 782 775 773 780 786 789 790 790 787 791 795 790 781 780 781 790 801 795 775 797 801 797 805 802 802 805 825 827 811 767 768 760 752 742 730 734 742
778 786 763 758 778 787 794 783 780 787 782 785 785 788 793 791 796 796 799 793 782 783 798 797 812 816 800 789 782 789 814 821 835 824 816 816 812 766 766 758 746 736 719 728 737
791 787 770 762 801 803 792 791 792 796 796 793 797 795 793 802 803 798 795 791 785 790 800 799 827 836 814 807 803 811 811 818 825 832 819 821 814 770 765 761 756 750 739 731 732
790 800 789 784 793 796 799 805 805 798 801 801 806 800 805 812 811 813 811 804 793 796 794 800 829 835 846 835 826 823 816 814 828 842 838 827 811 795 782 772 763 759 742 724 726
794 802 800 811 807 804 804 810 813 816 809 809 812 814 818 825 823 823 821 817 808 805 807 817 832 825 826 825 822 823 819 816 822 823 830 821 818 804 793 781 770 765 752 745 745
802 804 804 809 805 808 814 818 818 817 815 818 822 819 824 831 829 831 830 829 824 821 820 823 833 830 835 826 828 826 819 815 813 812 813 814 815 804 795 781 778 775 770 764 767
801 801 803 813 813 817 818 817 817 815 815 814 817 821 824 823 820 821 821 825 825 826 828 828 834 841 845 833 832 835 816 815 813 813 817 825 818 810 803 797 796 788 783 779 771